[[{"header":{"parameterUnit":"m.s-1","parameterCategory":1,"la1":30.2991,"la2":30.254,"lo1":-89.0895,"lo2":-89.0444,"dy":0.0017,"dx":0.0017,"nx":28,"ny":28,"refTime":"2024-04-09T21:00:00:Z","depth":0,"parameterNumber":2,"parameterNumberName":"U-component_of_WINDS"},"data":[0,0,0,0,0,0,0,0,0,0,0,0,0,0,0,0,0,0,0,0,0,0,0,0,0,0,0,0,0,0,0,0,0,0,0,0,0,0,0,0,0,0,0,0,0,0,0,0,0,0,0,0,0,0,0,0,0,0,7.9367,7.9367,0,7.9443,7.9444,7.9444,7.9342,7.9339,7.9335,7.9332,7.9408,7.9413,7.9419,0,0,0,0,0,0,0,0,0,0,0,0,0,7.9132,7.9137,7.9367,7.9368,7.9368,7.9443,7.9444,7.9445,7.9343,7.9339,7.9334,7.933,7.9406,7.9413,7.9419,0,0,0,0,0,0,0,0,0,0,0,0,0,7.9224,7.9138,7.9366,7.9327,7.9324,7.9442,7.9444,7.9445,7.9344,7.9338,7.9333,7.9328,7.9404,7.9412,7.942,7.9581,0,0,7.9445,7.9449,0,0,0,0,0,0,0,0,7.9219,7.9232,7.9332,7.933,7.9327,7.9377,7.9389,7.9491,7.9345,7.9336,7.9331,7.9325,7.9402,7.941,7.9437,7.9584,7.9588,7.9446,7.9451,7.9454,7.9457,0,0,0,0,0,0,0,7.9212,7.9228,7.9397,7.9333,7.933,7.9305,7.9312,7.9408,7.9399,7.9337,7.9329,7.934,7.94,7.9429,7.9438,7.9589,7.9446,7.9453,7.9458,7.9461,7.9873,7.9879,0,0,0,0,0,0,7.9211,7.9224,7.9394,7.9399,7.9258,7.9313,7.9321,7.9367,7.9398,7.9397,7.9345,7.9335,7.9418,7.9428,7.944,7.9631,7.9454,7.9462,7.9467,7.9867,7.9874,7.9881,0,0,0,0,0,0,7.9206,7.9227,7.9391,7.9309,7.9328,7.9323,7.9375,7.9371,7.94,7.9404,7.9402,7.9376,7.9414,7.9428,7.9547,7.9632,7.9466,7.9473,7.986,7.9869,7.9878,8.0014,0,0,0,0,0,0,7.92,7.9226,7.9287,7.9312,7.9333,7.9498,7.938,7.9377,7.9415,7.9403,7.9433,7.9432,7.9411,7.9535,7.9555,7.964,7.948,7.9852,7.9864,7.9875,8.0001,8.0026,8.0047,0,0,0,0,0,7.9192,7.9322,7.9291,7.9312,7.941,7.9503,7.9515,7.9488,7.9422,7.9483,7.9486,7.9431,7.9619,7.9548,7.957,7.9659,7.9847,7.9861,7.9874,7.9991,8.0021,8.0047,0,0,0,0,0,0,7.9307,7.9324,7.929,7.9432,7.9467,7.9485,7.9562,7.952,7.9574,7.9561,7.9524,7.9531,7.9658,7.967,7.959,7.9816,7.9722,7.9741,7.9804,7.9833,7.9855,7.985,7.9486,0,0,0,0,0,7.9349,7.9424,7.9434,7.9559,7.9578,7.9568,7.9607,7.9583,7.9617,7.9631,7.9642,7.9677,7.9744,7.9789,7.985,8.0002,8.0008,8.0074,8.0097,8.0116,8.0132,8.0214,8.0244,7.9925,7.9925,7.9925,0,0,7.9437,7.9455,7.9504,7.9582,7.9606,7.9684,7.958,7.9667,7.9724,7.9644,7.9757,7.9766,7.9803,7.9939,8.0,7.9953,8.0222,8.0133,8.0148,8.0154,8.0231,8.0262,8.0288,7.9935,7.9933,7.9931,0,0,7.9636,7.9657,7.9764,7.979,7.9828,7.982,7.9846,7.9871,7.9875,7.9987,7.9929,7.9996,8.0112,8.0141,8.0171,8.0382,8.0334,8.0403,8.0523,8.0603,8.0628,8.065,8.0726,8.0754,8.0419,8.0419,8.042,0,7.974,7.9855,7.9823,7.9915,7.9951,7.9882,7.999,8.0017,8.0073,8.0099,8.0046,8.0191,8.021,8.0353,8.0404,8.043,8.0459,8.0399,8.0627,8.0649,8.0669,8.0741,8.077,8.0428,8.0427,8.0426,8.0425,0,7.9981,8.0062,8.0144,8.0201,8.0246,8.0345,8.0328,8.0377,8.0349,8.0347,8.0463,8.0484,8.0549,8.0581,8.0554,8.072,8.069,8.0633,8.0538,8.0708,8.0775,8.0803,8.0439,8.0436,8.0434,8.0432,0,0,8.0256,8.0295,8.0325,8.035,8.0387,8.0449,8.0545,8.0609,8.0653,8.0693,8.0773,8.0873,8.082,8.0854,8.083,8.09,8.1067,8.0834,8.0834,8.0877,8.1252,8.1296,8.1328,8.1035,8.104,8.1044,8.1249,0,8.0456,8.0623,8.0597,8.0758,8.0832,8.0768,8.0852,8.0883,8.0884,8.0947,8.0946,8.1019,8.0943,8.0963,8.103,8.1033,8.1142,8.1017,8.1109,8.1113,8.1103,8.1363,8.1409,8.1601,8.1275,8.1279,8.1282,0,8.0712,8.0764,8.0932,8.0958,8.0988,8.1064,8.1121,8.1182,8.1217,8.1212,8.125,8.1213,8.1309,8.1212,8.1343,8.1259,8.1294,8.1302,8.1308,8.1316,8.1209,8.1379,8.1662,8.1691,8.1323,8.132,8.1317,0,8.0897,8.1008,8.1124,8.1147,8.118,8.1235,8.1251,8.128,8.132,8.137,8.1396,8.1456,8.1489,8.1536,8.1516,8.1447,8.1651,8.1552,8.165,8.1651,8.1697,8.1694,8.199,8.1719,8.1718,8.1718,8.1717,0,8.1124,8.123,8.1207,8.1278,8.1395,8.1364,8.148,8.1488,8.1515,8.1586,8.1534,8.1602,8.1571,8.1636,8.1621,8.1732,8.1747,8.1746,8.1741,8.1752,8.1752,8.1775,8.1762,8.1725,8.1724,8.1722,8.1721,0,8.1351,8.134,8.1462,8.1483,8.1491,8.1576,8.1594,8.166,8.1656,8.1747,8.1767,8.1761,8.1836,8.182,8.1902,8.1892,8.2032,8.2009,8.202,8.2015,8.2114,8.2106,8.2436,8.2478,8.2179,8.2182,8.2184,0,8.1497,8.1577,8.1607,8.1652,8.1672,8.1744,8.1785,8.1758,8.1803,8.1848,8.191,8.198,8.2034,8.2156,8.2159,8.2222,8.2201,8.2312,8.221,8.2218,8.2204,8.2199,8.2207,8.2333,8.2337,8.2339,8.2342,0,8.1759,8.1749,8.1811,8.1871,8.1922,8.1968,8.2009,8.2048,8.2024,8.2077,8.2153,8.2196,8.2279,8.235,8.2408,8.2423,8.2379,8.2374,8.24,8.2412,8.2415,8.2416,8.2077,8.2367,8.2364,8.2362,8.2361,8.236,8.195,8.2019,8.2051,8.2121,8.2149,8.2189,8.2252,8.2257,8.232,8.2387,8.2366,8.2453,8.2485,8.2558,8.2581,8.2648,8.2606,8.2644,8.2653,8.2663,8.2676,8.2404,8.2658,8.2657,8.2657,8.2656,8.2655,0,8.2209,8.2227,8.2292,8.2351,8.2407,8.2361,8.2403,8.2453,8.253,8.2564,8.2619,8.2706,8.2774,8.2783,8.2847,8.2899,8.288,8.2917,8.2913,8.2917,8.2709,8.268,8.2931,8.2931,8.2931,8.2931,8.293,8.293,8.2351,8.2465,8.2459,8.2586,8.2602,8.2687,8.2716,8.2752,8.2779,8.2879,8.2935,8.294,8.2964,8.3029,8.3089,8.309,8.3116,8.3161,8.3154,8.2959,8.2932,8.2906,8.2879,8.3167,8.3167,8.3356,8.3358,8.3359]},{"header":{"parameterUnit":"m.s-1","parameterCategory":1,"la1":30.2991,"la2":30.254,"lo1":-89.0895,"lo2":-89.0444,"dy":0.0017,"dx":0.0017,"nx":28,"ny":28,"refTime":"2024-04-09T21:00:00:Z","depth":0,"parameterNumber":3,"parameterNumberName":"V-component_of_WINDS"},"data":[0,0,0,0,0,0,0,0,0,0,0,0,0,0,0,0,0,0,0,0,0,0,0,0,0,0,0,0,0,0,0,0,0,0,0,0,0,0,0,0,0,0,0,0,0,0,0,0,0,0,0,0,0,0,0,0,0,0,0.4905,0.4906,0,0.5019,0.502,0.5021,0.5059,0.5059,0.5059,0.5058,0.5175,0.5179,0.5182,0,0,0,0,0,0,0,0,0,0,0,0,0,0.4719,0.4723,0.4905,0.4906,0.4908,0.5019,0.502,0.5022,0.506,0.5059,0.5058,0.5058,0.5174,0.5178,0.5182,0,0,0,0,0,0,0,0,0,0,0,0,0,0.4813,0.4724,0.4905,0.494,0.4944,0.5018,0.502,0.5022,0.506,0.5059,0.5058,0.5058,0.5173,0.5178,0.5183,0.523,0,0,0.5199,0.5202,0,0,0,0,0,0,0,0,0.4808,0.482,0.4933,0.4938,0.4943,0.5024,0.4998,0.5092,0.506,0.5016,0.5058,0.5057,0.5126,0.5135,0.5158,0.5236,0.5241,0.52,0.5203,0.5205,0.5207,0,0,0,0,0,0,0,0.4801,0.4815,0.495,0.4935,0.4941,0.495,0.4962,0.5016,0.5073,0.502,0.5023,0.5036,0.5128,0.5152,0.5161,0.5242,0.52,0.5204,0.5208,0.521,0.5363,0.5364,0,0,0,0,0,0,0.4789,0.481,0.4946,0.4953,0.4872,0.4954,0.4968,0.4999,0.5073,0.5083,0.5036,0.5037,0.5144,0.5154,0.5165,0.5224,0.5205,0.521,0.5213,0.5362,0.5363,0.5364,0,0,0,0,0,0,0.4785,0.4801,0.4942,0.4882,0.4901,0.4958,0.4992,0.5001,0.5026,0.5085,0.5096,0.5051,0.5143,0.5157,0.5213,0.5229,0.5213,0.5218,0.5361,0.5363,0.5364,0.5344,0,0,0,0,0,0,0.4779,0.4799,0.4818,0.4883,0.4904,0.4989,0.4993,0.5004,0.5035,0.5037,0.5102,0.5112,0.5144,0.5205,0.5219,0.5236,0.5222,0.536,0.5362,0.5363,0.5343,0.5344,0.5345,0,0,0,0,0,0.4773,0.4808,0.4819,0.4835,0.4929,0.499,0.5002,0.5038,0.5036,0.5055,0.5093,0.511,0.5225,0.521,0.5226,0.5245,0.5359,0.5361,0.5363,0.5343,0.5344,0.5345,0,0,0,0,0,0,0.4745,0.4818,0.483,0.4888,0.4932,0.4996,0.5021,0.5038,0.5084,0.5085,0.5128,0.5142,0.5194,0.5225,0.5208,0.5294,0.5293,0.5298,0.5272,0.5273,0.5274,0.5266,0.5226,0,0,0,0,0,0.4745,0.4789,0.485,0.4895,0.4916,0.4965,0.4992,0.5016,0.5064,0.5083,0.5125,0.5171,0.5217,0.5247,0.5293,0.5347,0.5361,0.5368,0.5369,0.5369,0.5373,0.5403,0.5406,0.5371,0.5371,0.5371,0,0,0.4747,0.4792,0.4817,0.489,0.4928,0.4971,0.498,0.5026,0.5059,0.509,0.5145,0.5177,0.5231,0.5286,0.5312,0.5313,0.5386,0.5372,0.5371,0.5376,0.5405,0.5409,0.5412,0.5372,0.5372,0.5371,0,0,0.4773,0.4811,0.4853,0.4889,0.4945,0.4976,0.4986,0.5047,0.5069,0.5125,0.5149,0.5188,0.5267,0.5304,0.5333,0.5369,0.5386,0.5383,0.5388,0.5416,0.5419,0.5422,0.5434,0.5438,0.5387,0.5387,0.5387,0,0.4768,0.4835,0.4872,0.4916,0.4947,0.4976,0.5018,0.5051,0.5119,0.514,0.514,0.5238,0.5277,0.534,0.5348,0.5371,0.5383,0.5376,0.5416,0.5419,0.5422,0.5434,0.5439,0.5386,0.5386,0.5386,0.5386,0,0.4826,0.4871,0.4898,0.4962,0.4996,0.5038,0.5081,0.511,0.513,0.5162,0.5217,0.5264,0.5319,0.5335,0.5356,0.5401,0.54,0.5407,0.5407,0.5424,0.5436,0.5441,0.5385,0.5385,0.5385,0.5386,0,0,0.4839,0.4921,0.4931,0.4959,0.5022,0.5057,0.51,0.5154,0.5178,0.5223,0.526,0.5325,0.5331,0.5364,0.5389,0.5413,0.5438,0.5418,0.5419,0.542,0.549,0.5484,0.5489,0.5449,0.545,0.5451,0.5485,0,0.4873,0.4952,0.4985,0.5048,0.509,0.5117,0.5154,0.5196,0.5226,0.5265,0.5298,0.5343,0.5348,0.5368,0.5394,0.543,0.5453,0.5428,0.5483,0.5485,0.547,0.5496,0.5491,0.5521,0.549,0.5491,0.5492,0,0.4923,0.4968,0.5034,0.509,0.5109,0.5142,0.5193,0.523,0.5277,0.5297,0.5332,0.5355,0.54,0.5396,0.5459,0.5441,0.5465,0.5486,0.5488,0.5495,0.549,0.5504,0.5531,0.5536,0.55,0.5499,0.5498,0,0.4926,0.5002,0.5052,0.5075,0.5142,0.5164,0.5193,0.5239,0.5269,0.5313,0.5332,0.538,0.5407,0.5444,0.5479,0.5473,0.5538,0.5537,0.5555,0.5554,0.5569,0.5567,0.5601,0.5583,0.5583,0.5583,0.5583,0,0.496,0.5,0.5054,0.5084,0.5129,0.5166,0.5209,0.524,0.5281,0.5317,0.5343,0.5377,0.5421,0.5459,0.5487,0.5534,0.5546,0.5563,0.557,0.5561,0.5558,0.5578,0.5577,0.5585,0.5584,0.5584,0.5584,0,0.4971,0.5009,0.5064,0.5122,0.5137,0.5168,0.5217,0.5247,0.5277,0.5322,0.5335,0.5382,0.5429,0.5467,0.5529,0.5547,0.5596,0.5604,0.558,0.5584,0.56,0.5598,0.5647,0.5655,0.5632,0.5632,0.5632,0,0.4991,0.5022,0.5082,0.5108,0.5136,0.5178,0.5207,0.5244,0.5274,0.5329,0.5352,0.5401,0.5442,0.5515,0.5554,0.5601,0.561,0.5624,0.5618,0.5607,0.561,0.5608,0.5611,0.5625,0.5625,0.5625,0.5625,0,0.5021,0.5038,0.508,0.5127,0.5162,0.5201,0.5241,0.5261,0.5305,0.5337,0.5385,0.5416,0.5478,0.5525,0.5576,0.5605,0.5622,0.5627,0.5634,0.5625,0.561,0.5618,0.5582,0.5626,0.5626,0.5626,0.5626,0.5626,0.5037,0.5066,0.5112,0.5157,0.5191,0.5227,0.5258,0.5291,0.5331,0.5385,0.5403,0.5452,0.5497,0.5566,0.5595,0.5633,0.5635,0.5645,0.5648,0.565,0.5648,0.5603,0.5643,0.5643,0.5643,0.5643,0.5643,0,0.5069,0.51,0.5141,0.5195,0.523,0.5243,0.5287,0.5316,0.5358,0.5398,0.5437,0.5491,0.5537,0.5579,0.5627,0.5649,0.5658,0.566,0.5659,0.5665,0.5644,0.5633,0.5652,0.5652,0.5652,0.5652,0.5652,0.5652,0.509,0.5138,0.5159,0.5224,0.5255,0.5302,0.5326,0.536,0.5392,0.5451,0.5489,0.5515,0.5556,0.5606,0.5648,0.5659,0.5676,0.5676,0.5689,0.5668,0.5667,0.5666,0.5656,0.5679,0.5679,0.5707,0.5707,0.5707]}]]